Location: Unspecified
(0.0000°N, 0.0000°E)
Time: 19:12:01
(UTC+00:00)

S-56A Canister/Altair - Pass Details

Date: 19 November 2019
Orbit: 633 x 2499 km, 38.9° (Epoch: 06 December)

Event Time Altitude Azimuth Distance (km) Brightness Sun altitude
Exits shadow 02:33:29 18° 161° (SSE) 2,319 10.2 -44.5°
Drops below altitude 10° 02:35:40 10° 151° (SSE) 3,055 11.0 -44.0°
Sets 02:39:19 0° 143° (SE) 4,343 12.0 -43.2°
